2024-173A

Last updated on Tue Oct 08 2024 00:02:04 GMT+0000 (Coordinated Universal Time)

1 61227U 24173A 24281.53923977 .00059813 00000+0 23780-2 0 9994 2 61227 97.4063 354.2042 0010920 221.4348 138.6062 15.25016979 2031
UTC large
Height (km)
Speed (km/s)
/
Latitude / Longitude
Inclination (degrees)
Orbital Period (minutes)
Azimuth
Elevation
Range (km)
Doppler Factor

Next 0 passes for location: London (51.5072 / 0.1276)

Sorry there are no passes over London.